Weather History for KSBM - November, 2013

Change the Weather History Date:

Sunday, November 24, 2013

  Actual Average Record
Temperature  
Mean Temperature 17 °F -  
Max Temperature 24 °F 41 °F 55 °F (1968)
Min Temperature 10 °F 27 °F -4 °F (1950)
Degree Days  
Heating Degree Days 48    
Moisture  
Dew Point 4 °F    
Average Humidity 56    
Maximum Humidity 80    
Minimum Humidity 35    
Precipitation  
Precipitation 0.00 in - - ()
Sea Level Pressure  
Sea Level Pressure 30.53 in    
Wind  
Wind Speed 10 mph (WSW)    
Max Wind Speed 21 mph    
Max Gust Speed 30 mph    
Visibility 10 miles    
Events      
Averages and records for this station are not official NWS values.
T = Trace of Precipitation, MM = Missing Value Source: NWS Daily Summary

Daily Weather History Graph

Daily Weather History Graph

Search for Another Location

Airport or City:

Trip Planner

Search our weather history database for the weather conditions in past years. The results will help you decide how hot, cold, wet, or windy it might be!

Date:

Astronomy

Nov. 24, 2013 Rise Set
Actual Time 6:57 AM CST 4:18 PM CST
Civil Twilight 6:25 AM CST 4:50 PM CST
Nautical Twilight 5:50 AM CST 5:25 PM CST
Astronomical Twilight 5:15 AM CST 6:00 PM CST
Moon 10:50 PM CST (11/24) 11:39 AM CST (11/24)
Length of Visible Light 10h 24m
Length of Day
9h 21m
Waning Gibbous, 60% of the Moon is Illuminated
Nov 24
Waning Gibbous
Nov 25
Last Quarter
Dec 2
New
Dec 9
First Quarter
Dec 17
Full

Hourly Weather History & Observations

Time (CST) Temp. Windchill Dew Point Humidity Pressure Visibility Wind Dir Wind Speed Gust Speed Precip Events Conditions
12:53 AM 12.9 °F -0.2 °F 1.9 °F 62% 30.69 in 10.0 mi WNW 10.4 mph - N/A   Clear
1:53 AM 12.0 °F 2.7 °F 3.9 °F 70% 30.69 in 10.0 mi WNW 5.8 mph - N/A   Clear
2:53 AM 10.9 °F 1.4 °F 3.9 °F 73% 30.68 in 10.0 mi West 5.8 mph - N/A   Clear
3:53 AM 12.0 °F 0.5 °F 3.9 °F 70% 30.66 in 10.0 mi NW 8.1 mph - N/A   Clear
4:53 AM 10.9 °F 0.2 °F 3.9 °F 73% 30.67 in 10.0 mi West 6.9 mph - N/A   Clear
5:53 AM 10.0 °F 1.8 °F 5.0 °F 80% 30.66 in 10.0 mi WNW 4.6 mph - N/A   Clear
6:53 AM 10.0 °F -0.9 °F 5.0 °F 80% 30.67 in 10.0 mi West 6.9 mph - N/A   Clear
7:53 AM 12.0 °F 0.5 °F 7.0 °F 80% 30.68 in 10.0 mi West 8.1 mph - N/A   Clear
8:53 AM 14.0 °F 2.0 °F 8.1 °F 77% 30.69 in 10.0 mi West 9.2 mph - N/A   Clear
9:53 AM 17.1 °F 5.8 °F 6.1 °F 62% 30.68 in 10.0 mi West 9.2 mph - N/A   Clear
10:53 AM 19.0 °F 7.5 °F 3.0 °F 50% 30.63 in 10.0 mi SW 10.4 mph - N/A   Clear
11:53 AM 21.0 °F 9.9 °F -0.0 °F 40% 30.60 in 10.0 mi WSW 10.4 mph - N/A   Mostly Cloudy
12:53 PM 21.9 °F 12.5 °F -0.0 °F 38% 30.55 in 10.0 mi WSW 8.1 mph - N/A   Mostly Cloudy
1:53 PM 24.1 °F 13.1 °F -0.0 °F 35% 30.51 in 10.0 mi SW 11.5 mph - N/A   Partly Cloudy
2:53 PM 24.1 °F 13.1 °F 1.9 °F 38% 30.49 in 10.0 mi SW 11.5 mph - N/A   Partly Cloudy
3:53 PM 24.1 °F 12.5 °F 3.9 °F 42% 30.46 in 10.0 mi SSW 12.7 mph - N/A   Clear
4:53 PM 21.9 °F 10.4 °F 5.0 °F 48% 30.43 in 10.0 mi South 11.5 mph - N/A   Clear
5:53 PM 21.9 °F 9.2 °F 5.0 °F 48% 30.41 in 10.0 mi SSW 13.8 mph - N/A   Clear
6:53 PM 21.9 °F 9.2 °F 5.0 °F 48% 30.37 in 10.0 mi SSW 13.8 mph - N/A   Clear
7:53 PM 21.9 °F 6.5 °F 6.1 °F 51% 30.33 in 10.0 mi SSW 20.7 mph 29.9 mph N/A   Clear
8:53 PM 23.0 °F 8.3 °F 6.1 °F 48% 30.28 in 10.0 mi SW 19.6 mph 27.6 mph N/A   Clear
9:53 PM 23.0 °F 8.7 °F 6.1 °F 48% 30.27 in 10.0 mi SW 18.4 mph 25.3 mph N/A   Clear
10:53 PM 23.0 °F 10.6 °F 6.1 °F 48% 30.26 in 10.0 mi SW 13.8 mph - N/A   Clear
11:53 PM 24.1 °F 10.1 °F 3.9 °F 42% 30.24 in 10.0 mi SW 18.4 mph 25.3 mph N/A   Clear